全球星 M039星 (GLOBALSTAR M039)

导读

GLOBALSTAR M039是美国全球星系统(GlobalStar system)第一代低轨通信卫星,于1999年11月22日发射,是全球星完成48颗低轨卫星组网建设的组成部分。该卫星基于劳拉公司LS-400平台建造,采用三轴稳定设计,运行于倾角52°、高度约1414千米的轨道,设计寿命7.5年,主要为全球提供数字语音、数据传输、短信息、传真及跨网漫游等移动通信服务,填补了偏远地区通信基础设施覆盖空白。

基本信息
目录编号:
25961
目录名称:
GLOBALSTAR M039
国际标识:
1999-062A
轨道中心:
EARTH
卫星名称:
全球星 M039星
卫星全名:
全球星 M039星 (GLOBALSTAR M039)
卫星状态:
在轨 (已飞行9791 天)
发射日期:
1999-11-22 UTC
国别 :
(GLOB)
星等 :
--
该卫星已列入 空间交会检测服务 Space Conjunction Data Service (SCDS) ,当前飞行风险评估等级: 无高风险
轨道信息
数据来源 国际轨道数据 AOE轨道数据
星历时间 2026-09-11T17:48:04+0800
19小时前
查看轨道信息
2026-09-10T08:00:00+0800
2天前
查看轨道信息
半长轴 7791.394km 7791.394km
偏心率 0.0002273 0.0002251
轨道倾角 51.987° 51.987°
近地点辐角 261.321° 258.315°
升交点赤经 334.350° 338.642°
平近点角 98.740° 178.292°
近地点 1411.486km 1411.503km
远地点 1415.028km 1415.011km
周期 114.073分钟 114.073分钟
每日圈数 12.623509 12.623507
详细信息
固有亮度:
5
最大亮度:
7.9
平衡模式:
三轴稳定
覆盖范围:
全球
运营商:
全球星公司
运营商所在国:
美国
使用方式:
暂无
卫星简介
全球星星座由48颗卫星加8颗备份星组成。这些卫星分布在8个倾角为52度的圆形轨道平面上,每个轨道平面6颗卫星,另有1 颗备用星。轨道高度约为1414km,传输时延和处理时延小于300ms,整个系统的覆盖区为南北纬70度以内的地区。该卫星已退役。
2D轨道图
3D轨道图
轨道高度分析图
轨道倾角分析图
轨道综合分析图
查看轨道综合分析图
交会数据列表
事件ID 空间交会对象 最接近时刻(TCA) 交会距离 交会风险概率(CRP) 交会风险指数(CRI) 操作
CDM_260913-214302-178202-596122
2026-09-13T
21:43:39+0000
1.479 km
极远距离
6.480806E-6 低风险 0.51
与全量物体交会距离演化趋势
与全量物体交会风险概率演化趋势